Погода в Тренчине

Словакия     48°53′38″N   18°02′08″E
темп.,
°C
ветер,
м/с
пор.,
м/с
влажн.,
%
обл.,
%
осадки,
мм/ч
давл.,
гПа
погр.,
м
7 марта, вс
вс701:00−3ю11650 0.0 103121
04:00−3ю11640 0.0 102821
07:00−3ююв11630 0.0 102742
10:00+2ю35420 0.0 1025684
13:00+4ююз35400 0.0 1022909
16:00+4зюз24450 0.0 10201064
19:00−1ю116626 0.0 102021
22:00−2зюз006819 0.0 102021
8 марта, пн
пн801:00−2сз11669 0.0 101921
04:00−3зсз12722 0.0 101821
07:00−3сз12841 0.0 101978
10:00+2ссз366463 0.0 1020999
13:00+3с355480 0.0 10201270
16:00+2с455145 0.0 10201228
19:00−3ссв236922 0.0 102249
22:00−3св226728 0.0 102336
9 марта, вт
вт901:00−4ссв116521 0.0 102321
04:00−4в11660 0.0 102221
07:00−3вюв11647 0.0 102265
10:000ю236298 0.0 1022715
13:00+3ююз224899 0.0 10211085
16:00+2ю1151100 0.0 10191050
19:00−1ю0166100 0.0 102021
22:00−1юв1173100 0.0 102021
10 марта, ср
ср1001:00−2в0089100 0.1 102028
04:00−2всв0096100 0.5 102061
07:00−2ссз1194100 0.9 1021113
10:00+2с136892 0.0 1022792
13:00+3ссз235895 0.1 10221208
16:00+3ссз345686 0.0 10221241
19:00−2с127943 0.0 102323
22:00−3в11760 0.0 102421
11 марта, чт
чт1101:00−3вюв11720 0.0 102421
04:00−3ююв22715 0.0 102248
07:00−1ююв376840 0.0 1020441
10:00+2ю41071100 0.0 1019611
13:00+1ю51295100 0.4 1017665
16:00+2ю31094100 0.4 1014562
19:00+2ююв3596100 0.4 1013195
22:00+2юв2392100 0.1 101388